Вернуться в каталог

COSMOS 2251 DEB

АктивенLEO
NORAD 40808·DEBRIS·🇷🇺 Russia

Запущен Jun 16, 1993 с Plesetsk Cosmodrome

Loading…

Ближайшие Пролёты (ближайшие 24 часа)

TLE

СвежийSource: Space-Track

Эпоха: Sep 14, 2026, 22:56 UTC

1 40808U 93036BWM 26257.95613061  .00004940  00000-0  79954-3 0  9998
2 40808  74.0416 330.2293 0010997 301.6382 235.6820 14.71518793676770

Отслеживайте COSMOS 2251 DEB в реальном времени с AllMySat

Download on the App Store